Satellite: CO-56
Catalog number: 28941
Epoch time: 07340.61906957
Element set: 685
Inclination: 098.1101 deg
RA of node: 061.6002 deg
Eccentricity: 0.0201243
Arg of perigee: 019.5221 deg
Mean anomaly: 341.3589 deg
Mean motion: 15.46812114 rev/day
Decay rate: 1.9369e-04 rev/day^2
Epoch rev: 10002
Checksum: 283
Satellite: CO-56
Catalog number: 28941
Epoch time: 07340.61906957
Element set: 685
Inclination: 098.1101 deg
RA of node: 061.6002 deg
Eccentricity: 0.0201243
Arg of perigee: 019.5221 deg
Mean anomaly: 341.3589 deg
Mean motion: 15.46812114 rev/day
Decay rate: 1.9369e-04 rev/day^2
Epoch rev: 10002
Checksum: 283
Satellite: CO-56
Catalog number: 28941
Epoch time: 07340.61906957
Element set: 685
Inclination: 098.1101 deg
RA of node: 061.6002 deg
Eccentricity: 0.0201243
Arg of perigee: 019.5221 deg
Mean anomaly: 341.3589 deg
Mean motion: 15.46812114 rev/day
Decay rate: 1.9369e-04 rev/day^2
Epoch rev: 10002
Checksum: 283
Satellite: AO-51
Catalog number: 28375
Epoch time: 07339.64108268
Element set: 0974
Inclination: 098.0923 deg
RA of node: 009.9487 deg
Eccentricity: 0.0085175
Arg of perigee: 023.1495 deg
Mean anomaly: 337.3496 deg
Mean motion: 14.40589323 rev/day
Decay rate: 2.2e-07 rev/day^2
Epoch rev: 18039
Checksum: 336
Satellite: CO-57
Catalog number: 27848
Epoch time: 07340.01068523
Element set: 138
Inclination: 098.7180 deg
RA of node: 345.1079 deg
Eccentricity: 0.0009846
Arg of perigee: 324.1682 deg
Mean anomaly: 035.8837 deg
Mean motion: 14.20360997 rev/day
Decay rate: 2.1e-07 rev/day^2
Epoch rev: 22984
Checksum: 321
Satellite: CO-55
Catalog number: 27844
Epoch time: 07340.60185893
Element set: 182
Inclination: 098.7198 deg
RA of node: 346.5517 deg
Eccentricity: 0.0009458
Arg of perigee: 319.4724 deg
Mean anomaly: 040.5750 deg
Mean motion: 14.20546918 rev/day
Decay rate: 4.7e-07 rev/day^2
Epoch rev: 22995
Checksum: 339
Satellite: SO-50
Catalog number: 27607
Epoch time: 07339.88683510
Element set: 0473
Inclination: 064.5591 deg
RA of node: 283.6917 deg
Eccentricity: 0.0073601
Arg of perigee: 318.5649 deg
Mean anomaly: 040.9862 deg
Mean motion: 14.71307827 rev/day
Decay rate: -1.1e-07 rev/day^2
Epoch rev: 26638
Checksum: 329
Satellite: NO-44
Catalog number: 26931
Epoch time: 07339.71400922
Element set: 0749
Inclination: 067.0523 deg
RA of node: 065.6361 deg
Eccentricity: 0.0005168
Arg of perigee: 251.2884 deg
Mean anomaly: 108.7652 deg
Mean motion: 14.29503232 rev/day
Decay rate: -3.10e-06 rev/day^2
Epoch rev: 32261
Checksum: 285
Satellite: MO-46
Catalog number: 26548
Epoch time: 07339.58234668
Element set: 0965
Inclination: 064.5593 deg
RA of node: 012.4069 deg
Eccentricity: 0.0006023
Arg of perigee: 349.4314 deg
Mean anomaly: 010.6685 deg
Mean motion: 14.83204440 rev/day
Decay rate: 1.48e-06 rev/day^2
Epoch rev: 38895
Checksum: 324
Satellite: GO-32
Catalog number: 25397
Epoch time: 07339.78124342
Element set: 0468
Inclination: 098.3933 deg
RA of node: 019.2837 deg
Eccentricity: 0.0002158
Arg of perigee: 090.3588 deg
Mean anomaly: 269.7814 deg
Mean motion: 14.23135106 rev/day
Decay rate: 4.8e-07 rev/day^2
Epoch rev: 48856
Checksum: 333
Satellite: PO-28
Catalog number: 22829
Epoch time: 07340.79817132
Element set: 818
Inclination: 098.3377 deg
RA of node: 305.5077 deg
Eccentricity: 0.0010762
Arg of perigee: 082.1539 deg
Mean anomaly: 278.0884 deg
Mean motion: 14.30174151 rev/day
Decay rate: 1.9e-07 rev/day^2
Epoch rev: 74048
Checksum: 318
Satellite: IO-26
Catalog number: 22826
Epoch time: 07340.57682193
Element set: 543
Inclination: 098.3505 deg
RA of node: 304.1570 deg
Eccentricity: 0.0009798
Arg of perigee: 107.0645 deg
Mean anomaly: 253.1611 deg
Mean motion: 14.29471800 rev/day
Decay rate: 1.4e-07 rev/day^2
Epoch rev: 74020
Checksum: 285
Satellite: AO-27
Catalog number: 22825
Epoch time: 07339.85913534
Element set: 0843
Inclination: 098.3574 deg
RA of node: 302.4705 deg
Eccentricity: 0.0009181
Arg of perigee: 110.8462 deg
Mean anomaly: 249.3711 deg
Mean motion: 14.29224873 rev/day
Decay rate: 9.7e-07 rev/day^2
Epoch rev: 74001
Checksum: 309
Satellite: LO-19
Catalog number: 20442
Epoch time: 07340.43426728
Element set: 120
Inclination: 098.1892 deg
RA of node: 334.6804 deg
Eccentricity: 0.0012600
Arg of perigee: 036.4811 deg
Mean anomaly: 323.7238 deg
Mean motion: 14.32017533 rev/day
Decay rate: 4.5e-07 rev/day^2
Epoch rev: 93334
Checksum: 271
Satellite: AO-16
Catalog number: 20439
Epoch time: 07340.00530400
Element set: 196
Inclination: 098.2111 deg
RA of node: 325.2229 deg
Eccentricity: 0.0011808
Arg of perigee: 038.3311 deg
Mean anomaly: 321.8719 deg
Mean motion: 14.31777514 rev/day
Decay rate: 3.0e-08 rev/day^2
Epoch rev: 93313
Checksum: 256
/EX
SB KEPS @ AMSAT $ORB07340.W
Orbital Elements 07340.WEATHER
HR AMSAT ORBITAL ELEMENTS FOR WEATHER SATELLITES
FROM WA5QGD FORT WORTH,TX December 6, 2007
Send Subscribe/unsubscribe to KEPS at
http://www.amsat.org/mailman/listinfo/keps
BID: ORB07340.W
TO ALL RADIO AMATEURS BT
Satellite: NOAA-18
Catalog number: 28654
Epoch time: 07340.76878342
Element set: 224
Inclination: 098.8477 deg
RA of node: 279.2903 deg
Eccentricity: 0.0014838
Arg of perigee: 137.7677 deg
Mean anomaly: 222.4668 deg
Mean motion: 14.11115788 rev/day
Decay rate: -2.5e-07 rev/day^2
Epoch rev: 13119
Checksum: 339
Satellite: NOAA-17
Catalog number: 27453
Epoch time: 07340.39702320
Element set: 707
Inclination: 098.5627 deg
RA of node: 045.4034 deg
Eccentricity: 0.0011048
Arg of perigee: 316.2996 deg
Mean anomaly: 043.7318 deg
Mean motion: 14.23929818 rev/day
Decay rate: -3.7e-07 rev/day^2
Epoch rev: 28322
Checksum: 302
Satellite: NOAA-16
Catalog number: 26536
Epoch time: 07340.18479341
Element set: 711
Inclination: 099.1393 deg
RA of node: 320.3041 deg
Eccentricity: 0.0011301
Arg of perigee: 053.1045 deg
Mean anomaly: 307.1157 deg
Mean motion: 14.12459851 rev/day
Decay rate: -2.12e-06 rev/day^2
Epoch rev: 37138
Checksum: 262
Satellite: OKEAN-0
Catalog number: 25860
Epoch time: 07339.63216394
Element set: 0229
Inclination: 097.7384 deg
RA of node: 333.9461 deg
Eccentricity: 0.0001181
Arg of perigee: 108.1347 deg
Mean anomaly: 251.9989 deg
Mean motion: 14.73488811 rev/day
Decay rate: 4.3e-07 rev/day^2
Epoch rev: 45074
Checksum: 318
Satellite: FENGYUN1
Catalog number: 25730
Epoch time: 07339.94350453
Element set: 0289
Inclination: 098.7073 deg
RA of node: 317.4576 deg
Eccentricity: 0.0021008
Arg of perigee: 358.3271 deg
Mean anomaly: 001.7825 deg
Mean motion: 14.07644770 rev/day
Decay rate: -1.6e-07 rev/day^2
Epoch rev: 44163
Checksum: 298
Satellite: RESURS
Catalog number: 25394
Epoch time: 07340.48019625
Element set: 801
Inclination: 098.4152 deg
RA of node: 027.9810 deg
Eccentricity: 0.0002400
Arg of perigee: 053.5474 deg
Mean anomaly: 306.5927 deg
Mean motion: 14.24149872 rev/day
Decay rate: -2.3e-07 rev/day^2
Epoch rev: 48887
Checksum: 296
Satellite: NOAA-15
Catalog number: 25338
Epoch time: 07340.31027775
Element set: 266
Inclination: 098.5432 deg
RA of node: 332.2443 deg
Eccentricity: 0.0009694
Arg of perigee: 245.6828 deg
Mean anomaly: 114.3377 deg
Mean motion: 14.24675573 rev/day
Decay rate: 9.4e-07 rev/day^2
Epoch rev: 49719
Checksum: 326
